Theta_e
328 324 320 322 319 317 315 303 295 291 294 289 287 289 290 295 294 293 292 292 295 295 297 300 299 301 299 298 298 296 297 297 296 293 291 296 312 319 321 322 327 328 329 328 330 332 336 340 344 345 344 345 346 347 346 347 346 346 346 346 346 346 346 346 346 346 346 346 346 346 345 345 345 346 345 345 344 344 344 343 344 344 345 346 347 346 347 346 346 345 343 342 339 338 339 339 340
323 320 321 321 318 314 309 297 289 288 285 283 289 288 290 292 294 292 291 292 292 299 296 299 298 300 300 300 299 300 301 301 298 300 303 308 312 318 320 325 327 328 327 328 329 330 331 335 342 343 343 343 344 344 345 344 345 345 345 345 346 346 346 346 346 346 346 345 345 345 344 343 344 343 343 343 342 341 342 342 342 342 344 344 345 345 345 344 343 341 340 338 337 335 335 335 336
322 321 319 317 315 310 305 300 296 283 286 283 285 289 291 292 292 292 293 292 291 293 295 298 298 298 301 299 301 300 297 303 303 304 305 310 317 320 321 326 326 327 326 326 328 329 329 333 340 341 342 342 343 343 343 342 343 342 343 343 343 343 343 344 344 344 343 343 342 341 340 341 341 342 341 340 339 339 339 339 338 338 339 341 341 341 340 340 339 338 337 335 334 332 332 331 332
318 319 316 311 310 301 298 293 286 286 287 283 285 291 290 293 291 294 293 293 292 295 296 299 299 298 299 296 298 299 298 301 304 305 306 312 317 319 323 325 326 326 325 325 326 327 327 333 339 340 341 341 342 342 341 341 342 341 341 342 342 341 343 343 343 342 341 340 340 339 339 339 339 338 338 337 336 336 335 335 335 335 336 337 337 337 337 336 335 335 333 332 332 330 329 329 329
318 318 315 309 305 301 295 293 290 286 287 285 285 289 291 291 294 292 294 294 294 296 295 297 297 299 299 299 298 298 296 300 304 307 306 310 311 321 323 324 324 324 324 323 324 325 325 334 338 340 340 341 341 341 341 341 341 340 339 339 340 340 342 342 341 340 339 338 337 337 337 338 337 336 335 334 333 333 333 333 333 333 333 334 335 334 334 334 332 332 330 329 328 327 326 326 327
313 314 312 314 308 305 297 292 290 288 292 289 290 292 293 295 294 294 294 292 294 295 295 296 296 297 297 297 298 297 299 303 303 306 306 312 313 322 323 324 323 323 322 322 322 323 323 333 337 339 339 339 340 340 340 339 339 338 338 338 338 339 338 338 338 337 337 335 335 335 335 335 334 333 332 332 331 331 331 331 331 331 331 332 332 332 332 331 330 329 327 327 327 326 325 325 325
315 306 304 303 303 299 293 287 287 288 295 293 293 295 298 297 295 296 295 296 298 296 294 297 295 296 295 295 299 301 303 306 306 307 310 310 315 320 323 323 322 321 321 321 321 322 321 333 336 337 338 338 338 339 338 338 337 336 337 337 337 336 336 335 335 336 335 335 335 335 335 334 333 332 331 330 330 329 329 329 328 328 328 329 329 329 329 328 328 327 325 326 326 325 324 324 324
313 309 303 296 293 294 291 288 289 288 291 297 295 295 298 296 294 294 294 295 295 297 295 294 295 295 291 299 296 297 302 304 306 306 308 312 315 319 322 322 321 320 320 320 320 319 326 333 336 337 336 337 337 337 337 336 336 336 336 336 336 336 336 336 336 336 335 335 334 334 334 333 331 330 329 329 328 327 326 326 326 325 325 326 326 326 326 326 326 326 325 325 325 325 324 323 323
307 308 301 296 294 289 286 289 289 291 292 292 295 295 303 298 295 294 293 294 294 294 294 297 295 294 289 296 295 296 299 302 306 308 309 313 315 319 322 321 321 319 319 320 320 319 320 332 335 335 336 335 336 336 336 336 335 337 336 336 336 336 336 336 335 335 335 334 334 333 332 330 329 328 327 327 326 326 325 325 325 325 325 325 325 325 325 325 325 326 326 326 325 325 323 322 322
305 303 295 293 288 290 284 286 288 290 292 294 294 298 297 295 295 295 294 295 295 294 294 294 293 294 293 293 294 296 300 303 307 308 309 313 316 319 320 320 320 319 318 319 319 321 321 328 332 333 335 336 334 334 336 335 335 335 336 336 336 336 335 335 335 334 333 333 332 331 330 328 327 326 326 325 324 324 324 324 325 324 324 324 324 324 324 325 326 326 326 325 324 323 322 322 321
300 299 296 295 290 287 287 285 286 291 290 293 295 298 298 295 295 293 294 293 294 295 295 296 298 295 294 294 296 297 301 302 307 307 310 313 314 317 318 318 318 318 318 317 318 319 321 323 328 331 333 334 334 334 334 334 334 334 334 334 334 334 334 334 333 332 331 330 330 329 328 328 327 326 325 324 323 323 323 324 324 323 323 323 323 323 324 324 324 324 324 323 322 321 321 320 320
297 298 295 287 286 286 285 285 287 291 293 293 294 294 294 296 295 296 294 295 293 293 294 297 297 294 294 292 291 296 299 304 306 308 310 313 313 313 316 315 316 316 317 316 316 317 319 319 323 327 330 330 333 333 333 333 333 333 333 333 333 333 333 333 331 330 329 329 328 328 327 326 326 325 324 323 322 322 322 323 323 323 323 323 324 324 323 323 323 322 321 320 320 320 319 319 318
297 293 289 289 285 287 285 288 290 292 289 289 293 295 294 295 297 297 293 294 293 295 295 297 297 297 295 293 293 296 301 303 306 308 311 312 310 310 312 313 314 314 315 315 315 315 315 317 319 321 325 327 329 329 331 331 332 333 332 332 332 332 331 330 329 328 328 328 328 327 326 324 324 323 323 322 321 321 322 322 322 323 323 323 323 323 323 322 320 320 319 318 318 319 319 318 317
295 294 293 290 286 286 288 288 285 289 286 290 291 292 295 295 295 294 291 293 292 294 296 296 298 297 294 295 293 294 298 302 304 307 309 307 305 310 311 311 311 312 312 313 315 314 314 315 317 317 320 322 321 325 326 329 330 331 331 331 330 329 329 328 328 328 327 326 326 324 322 321 321 321 322 321 321 321 321 321 321 322 322 322 321 321 321 320 318 318 317 317 317 317 317 317 316
303 295 289 288 287 284 284 290 287 284 288 291 294 294 295 297 294 291 295 294 295 295 299 298 298 297 292 296 293 294 298 302 303 306 304 302 305 308 308 309 309 309 309 311 313 313 313 313 315 315 316 316 317 317 318 323 326 328 329 329 328 328 328 327 327 326 325 324 323 321 320 320 319 320 320 320 319 319 319 320 320 320 321 321 320 319 319 318 317 316 315 314 314 314 315 314 314
299 292 291 292 286 285 286 287 287 288 289 291 293 292 294 294 294 297 295 296 295 297 297 298 300 298 295 295 296 297 296 302 303 303 301 301 302 304 306 306 307 307 307 310 311 312 312 312 312 312 313 313 313 313 314 316 322 323 325 326 326 326 326 326 326 325 323 322 320 319 316 312 313 313 317 314 316 317 317 317 319 319 320 320 319 318 317 316 316 315 314 313 311 311 311 311 311
298 295 292 283 286 285 285 287 287 288 289 290 292 294 296 294 294 294 294 295 296 294 297 295 299 300 294 295 296 296 300 304 304 300 300 299 301 301 302 303 304 304 307 308 309 310 310 311 310 311 310 310 310 311 312 313 317 321 321 322 323 324 325 324 324 321 317 316 313 311 308 302 301 303 304 304 311 306 314 315 316 318 318 318 318 317 316 315 314 314 312 311 309 308 306 306 307
302 294 285 284 285 285 287 289 290 292 293 294 293 293 294 292 292 297 296 295 294 293 294 294 295 295 295 294 296 299 301 302 301 301 300 299 299 300 302 303 304 307 307 307 307 309 309 309 310 309 308 307 308 309 310 311 313 317 312 314 314 318 319 318 313 308 310 305 309 304 299 300 297 297 300 307 303 306 309 313 314 315 315 315 315 316 314 313 312 311 310 309 308 306 302 293 295
296 288 286 288 284 290 292 291 291 292 293 291 293 291 292 295 294 295 295 291 292 294 293 292 295 297 295 296 298 299 301 300 301 303 300 299 299 300 303 303 304 305 305 306 307 307 308 309 308 308 307 306 306 306 308 308 309 308 307 309 310 313 312 309 305 305 299 299 297 296 298 297 295 297 298 301 303 308 307 311 311 312 312 312 313 314 313 311 310 309 308 307 305 301 293 292 291
296 292 288 287 289 290 291 293 295 293 294 295 293 292 290 292 294 295 295 294 291 292 293 293 293 297 297 294 296 298 300 300 301 302 300 300 300 301 302 302 304 305 307 307 308 307 307 307 308 308 306 305 305 305 306 306 305 305 306 305 306 306 305 303 301 299 297 296 296 296 295 295 296 296 307 308 307 302 305 309 308 307 306 305 305 302 307 308 308 306 304 302 299 295 291 291 291
295 293 290 291 290 292 296 294 295 296 295 293 292 291 290 290 291 294 291 293 297 297 295 297 296 297 298 295 295 297 298 299 299 300 300 300 299 301 302 304 305 306 307 307 304 305 306 306 307 306 305 304 304 304 304 304 304 303 302 302 301 300 300 299 299 297 297 296 296 295 294 295 295 297 296 295 293 292 291 291 291 291 292 293 297 290 291 294 292 290 292 294 290 292 291 290 291
295 297 297 295 291 292 297 294 293 293 291 291 290 291 296 293 292 292 293 293 296 297 292 297 299 299 297 294 296 296 297 298 299 299 299 299 298 298 300 300 301 300 300 303 304 305 305 306 306 306 304 303 303 303 304 304 302 301 300 300 298 298 298 297 296 296 296 296 295 295 296 294 295 293 291 291 291 290 290 289 289 289 289 291 293 289 289 289 289 289 290 291 290 290 290 290 291
294 294 295 296 295 296 297 296 292 291 293 293 292 294 292 293 293 290 292 295 300 302 294 294 297 299 298 296 295 295 296 297 298 298 299 298 298 298 299 300 300 299 299 302 304 304 304 304 304 304 303 302 301 301 301 302 300 300 299 298 297 296 295 296 295 295 295 295 295 295 294 293 292 290 290 290 290 290 289 289 288 289 288 288 291 289 289 289 289 289 289 289 289 289 289 289 289
296 295 291 296 296 296 298 298 296 293 293 295 293 290 292 292 293 291 292 298 300 301 298 295 295 295 295 294 296 297 297 297 298 299 300 300 299 299 299 299 299 299 298 299 300 302 302 303 303 303 302 301 300 300 300 300 299 298 297 299 297 297 296 295 295 295 295 294 295 295 294 292 291 290 290 289 289 289 289 289 288 288 288 288 290 289 288 288 288 288 288 287 288 288 289 288 288
295 295 293 296 295 296 297 295 292 291 291 292 290 291 295 293 293 291 296 299 300 300 297 297 295 292 292 294 295 296 296 297 298 298 299 300 299 300 299 298 297 297 297 298 298 299 300 302 302 301 301 301 300 298 299 298 297 296 296 296 296 299 295 295 295 295 294 293 294 295 294 292 290 290 290 289 288 289 288 288 287 287 288 288 289 288 288 288 288 288 288 287 287 288 288 289 288
294 297 294 292 293 293 294 291 290 290 293 291 292 294 295 294 293 292 298 300 301 298 296 296 294 293 292 293 295 296 296 297 298 297 298 299 299 297 298 298 297 297 298 298 297 298 299 300 300 300 301 300 299 297 297 296 296 295 295 295 295 298 295 294 294 294 293 293 294 294 293 292 291 290 290 288 289 288 287 287 288 287 287 287 288 288 288 287 287 287 287 287 287 287 288 290 287
292 292 292 293 293 292 292 292 292 290 290 289 293 295 296 292 293 293 299 299 297 295 293 292 292 293 294 294 294 295 296 297 297 299 297 297 297 297 298 298 297 298 298 297 297 297 298 298 299 300 300 300 298 296 296 295 295 295 294 294 294 295 295 294 294 294 292 292 294 293 293 293 291 290 289 289 288 288 287 287 287 287 286 287 287 288 288 287 287 287 287 287 287 287 287 288 287
292 292 291 292 290 291 292 291 292 291 294 291 294 294 293 289 290 294 299 298 294 294 296 293 290 293 294 294 294 294 295 297 297 296 297 296 297 298 298 297 298 298 297 297 298 297 297 297 298 298 298 299 297 296 295 294 294 294 293 293 294 295 294 294 294 293 293 292 293 293 292 292 292 289 289 288 288 288 287 286 286 286 286 286 287 287 288 287 287 287 287 287 286 287 287 287 287
292 291 292 292 290 292 296 293 293 290 292 290 291 290 290 289 289 296 298 299 295 293 295 296 295 293 293 293 293 293 294 296 295 296 298 299 300 300 299 299 299 298 299 299 298 297 296 297 297 298 298 298 297 296 295 294 294 294 293 293 294 295 294 293 293 293 293 292 292 292 291 291 292 290 289 289 290 287 287 286 285 287 286 287 286 287 287 287 287 287 288 287 286 286 286 287 287
292 290 288 291 290 290 294 289 288 290 291 289 291 285 286 290 294 296 298 295 293 292 294 296 297 296 294 293 293 294 294 294 294 297 298 299 299 299 299 300 300 299 299 298 296 296 297 297 298 298 297 297 298 297 296 294 294 294 294 293 294 294 294 293 293 293 293 291 292 292 291 291 291 290 289 288 288 287 287 286 285 285 285 286 287 287 286 286 286 286 286 288 290 286 285 285 284
290 288 289 286 284 287 291 290 288 290 289 290 291 287 289 293 295 296 295 293 292 294 295 295 296 297 296 294 293 294 295 295 296 297 298 299 299 299 299 300 299 299 299 297 297 297 297 297 297 297 297 297 298 297 297 295 294 294 294 293 293 294 294 293 292 292 292 291 291 291 291 291 290 290 289 289 287 287 286 286 285 285 286 286 285 286 286 286 286 286 285 285 285 284 284 286 284
285 286 284 281 285 287 292 291 290 290 289 288 291 285 289 293 295 296 292 292 291 292 294 295 295 295 295 295 293 293 295 296 296 296 297 298 299 299 299 299 299 298 299 298 298 297 296 296 297 296 296 296 297 297 297 296 295 294 294 295 293 293 293 293 292 291 291 291 291 290 290 291 290 289 289 288 287 287 286 286 285 285 285 286 286 285 286 285 285 286 285 285 284 284 284 283 284
281 286 284 285 282 283 286 293 287 291 290 289 292 288 286 289 293 294 290 292 289 291 292 294 294 294 294 294 295 295 295 295 295 295 296 297 298 299 299 299 299 299 299 299 298 296 296 295 296 296 295 296 296 297 297 295 294 294 294 294 293 293 293 293 292 291 291 291 290 290 290 291 290 289 289 288 287 287 286 286 284 285 285 285 285 284 284 286 285 286 285 286 283 283 283 283 283
284 283 282 282 284 284 284 287 292 286 289 287 289 287 289 293 295 293 292 290 289 288 291 293 293 294 293 292 293 294 295 295 296 296 297 297 298 298 299 300 299 298 298 299 298 297 296 296 296 296 296 296 296 296 296 295 294 294 293 293 293 293 292 292 291 291 290 291 290 290 290 291 290 289 288 288 287 287 286 285 285 285 285 284 284 284 284 285 285 285 284 283 283 283 283 283 283
283 281 281 283 282 284 286 284 286 288 288 287 287 287 288 291 293 293 294 294 289 289 291 293 293 293 294 294 294 295 295 296 298 299 298 297 296 297 298 298 298 297 298 298 298 297 296 295 295 296 296 295 295 295 295 293 292 292 290 291 291 291 291 290 291 290 291 290 290 289 290 290 290 288 288 288 287 287 286 285 285 284 285 284 284 284 283 284 285 283 284 283 283 284 283 283 283
286 285 284 281 282 284 283 288 290 289 290 287 285 288 290 291 292 294 295 295 294 294 294 293 294 294 295 295 296 296 297 298 300 301 298 297 297 297 297 297 298 298 298 297 297 296 296 295 295 295 295 295 295 294 293 292 291 291 290 289 289 290 290 290 290 291 290 290 290 289 290 289 289 288 287 287 287 287 285 285 285 284 284 284 283 283 283 284 283 283 282 283 284 284 284 283 282
287 284 282 284 284 285 288 289 290 288 286 287 289 289 289 290 291 293 295 295 294 294 294 294 295 295 296 296 297 297 297 298 301 301 299 298 296 296 296 296 297 296 296 296 296 296 295 295 294 294 295 294 294 293 292 291 291 290 290 290 291 291 291 290 290 290 290 290 290 289 289 289 288 288 287 287 286 287 285 284 284 284 283 284 283 284 284 283 283 283 284 284 282 282 282 282 282
286 286 283 285 283 285 289 290 292 288 286 287 288 288 289 290 292 293 294 293 293 295 295 296 296 296 296 296 297 297 298 299 299 299 299 294 293 293 293 294 294 294 294 295 295 296 295 294 294 294 294 294 294 294 293 292 292 292 292 291 292 291 291 290 289 289 290 290 289 289 289 289 288 288 287 286 286 286 285 284 284 284 283 283 283 283 282 285 284 283 283 281 281 281 281 281 283
285 285 285 284 285 287 290 290 292 290 285 287 288 287 289 290 292 293 293 294 295 296 296 297 297 297 297 297 297 298 297 297 298 298 298 294 292 292 293 293 294 296 296 295 296 295 294 293 294 294 294 294 294 294 293 293 293 293 292 292 292 290 291 291 290 290 290 289 289 289 289 288 288 287 287 287 286 286 285 285 284 284 283 284 283 282 283 283 282 283 282 282 281 281 282 283 282
283 283 281 283 286 284 285 285 286 285 288 282 281 285 288 290 291 292 293 294 295 296 296 296 297 296 297 297 298 298 297 297 297 298 298 294 291 292 291 291 293 294 294 293 293 294 294 293 293 293 293 294 294 294 294 293 293 291 289 289 289 288 288 289 288 287 288 288 288 288 288 288 288 288 287 287 286 286 285 285 284 283 283 284 283 283 283 283 282 282 281 282 283 281 279 281 282
286 286 286 285 285 287 286 285 284 285 285 284 286 286 287 289 289 290 292 293 293 294 295 295 296 297 297 298 297 297 297 297 298 298 298 296 290 290 292 292 292 293 294 294 294 294 294 293 293 293 293 293 293 294 293 292 291 289 288 288 287 286 287 286 286 285 287 288 288 287 288 288 288 288 287 286 286 285 285 284 284 283 283 283 283 283 283 283 282 282 282 282 280 281 279 278 281
287 286 287 288 289 287 287 286 284 280 281 282 284 282 285 284 288 288 291 288 288 291 291 293 294 295 296 295 295 296 296 297 297 297 297 297 294 290 289 289 291 292 293 294 294 294 293 293 292 292 293 293 293 293 293 292 291 290 288 288 287 287 286 285 286 287 286 287 288 288 287 288 287 287 287 286 286 286 284 284 283 283 283 283 283 283 282 281 281 282 282 282 280 280 281 279 279
285 283 287 289 288 286 285 284 283 278 277 283 283 280 282 282 284 286 286 286 289 289 290 292 293 295 294 295 296 296 296 296 295 295 296 296 295 290 289 290 291 292 293 293 292 292 292 292 292 292 292 292 293 292 292 292 291 290 290 290 290 289 289 288 289 288 288 288 288 287 287 287 287 287 286 286 286 286 284 284 284 283 283 283 283 282 281 282 282 282 282 281 281 282 281 279 280
283 283 285 286 285 284 284 283 283 282 280 282 282 282 279 282 286 288 288 290 289 289 290 291 293 294 294 295 296 295 296 295 295 295 295 295 292 292 293 291 291 293 293 291 292 292 291 291 291 291 292 292 292 292 292 292 291 290 290 290 290 290 290 290 289 288 288 288 287 287 287 287 287 287 286 286 286 285 285 284 283 283 283 283 283 282 282 281 282 282 282 281 281 282 281 281 280
283 284 284 284 285 283 282 283 281 280 279 281 280 282 279 279 285 287 287 286 287 288 291 292 293 294 295 296 296 295 296 295 294 295 295 294 291 291 291 291 292 291 290 291 292 291 291 291 291 291 291 291 291 291 291 291 292 291 290 290 290 291 290 289 287 288 287 287 287 286 286 286 286 286 286 285 285 285 285 284 283 283 283 282 283 282 281 281 282 281 281 281 281 281 280 280 281
285 283 283 282 281 281 282 280 282 278 276 280 279 282 278 282 288 283 281 285 285 287 290 292 293 294 294 295 295 295 295 294 295 294 294 294 291 290 290 290 288 290 290 290 289 289 289 289 290 290 290 291 291 291 291 291 291 291 290 290 290 290 289 286 286 286 286 286 286 286 286 285 285 285 285 285 284 284 284 284 283 283 283 282 283 282 281 281 281 281 281 281 281 280 280 280 280
284 285 285 280 280 278 277 277 277 278 276 280 281 282 283 278 283 282 283 285 286 289 287 289 291 292 293 294 294 296 296 295 296 294 290 289 287 287 287 288 287 286 286 288 289 289 289 289 289 289 290 290 290 290 290 290 290 290 290 290 290 289 288 286 285 285 285 285 286 285 285 285 285 285 285 284 284 284 284 283 283 282 282 283 283 281 281 282 281 281 281 281 281 281 280 280 282
287 285 279 282 283 276 276 269 276 274 275 280 281 282 282 278 279 281 282 283 282 287 288 289 290 292 293 294 294 295 295 295 294 292 290 287 287 287 285 286 285 285 285 287 287 288 288 289 289 289 288 289 289 290 290 290 290 290 290 290 290 290 288 287 286 286 285 285 286 285 285 285 284 285 284 284 283 283 283 283 283 282 282 282 282 282 281 281 281 281 280 280 280 280 280 281 280
285 281 284 280 274 273 270 271 271 271 277 277 280 281 278 280 286 283 286 286 285 285 288 290 289 291 292 292 293 292 291 290 289 290 290 288 286 286 285 285 284 284 287 287 287 288 288 288 288 288 288 288 288 289 289 289 289 290 290 290 290 290 289 288 287 287 286 286 286 285 284 284 284 283 283 283 283 283 283 282 282 282 282 282 282 281 281 281 281 280 280 280 280 279 280 280 280
283 283 280 277 272 270 269 265 264 268 277 277 278 280 280 285 284 286 291 293 292 289 288 289 289 291 293 292 290 290 290 288 288 288 287 288 287 286 286 286 285 285 285 287 287 287 288 288 288 288 288 288 288 288 288 288 289 289 289 289 289 289 288 288 287 287 287 286 286 286 285 285 284 284 284 284 284 283 283 283 283 282 282 282 282 281 281 281 281 281 280 280 280 280 279 280 280
285 283 285 282 279 271 268 270 278 278 280 277 277 276 275 275 280 283 289 289 287 286 287 288 288 288 288 288 288 289 290 287 285 286 288 288 288 286 287 286 286 285 285 285 286 287 287 288 288 287 287 287 287 287 288 288 289 288 288 288 288 288 288 288 288 288 287 286 286 286 286 285 285 285 285 284 284 283 283 283 282 282 281 281 281 281 281 281 281 280 280 280 279 279 279 279 278
283 282 281 279 282 280 281 282 280 282 279 273 274 278 276 284 285 287 285 287 288 288 288 285 288 289 288 289 291 292 292 288 287 287 288 288 287 286 286 286 286 285 285 285 285 286 287 288 288 288 288 287 287 287 287 288 288 287 287 287 287 287 287 287 287 287 287 286 285 285 285 285 285 285 285 284 284 283 283 282 282 281 281 281 281 281 280 280 280 280 279 279 278 279 278 278 278
281 283 281 284 283 285 281 280 279 276 273 277 280 278 282 284 289 288 284 285 287 287 289 288 288 289 287 289 290 289 290 290 289 289 289 288 285 285 286 285 285 284 284 285 286 287 287 287 287 287 287 287 287 287 287 287 287 286 287 287 287 286 286 286 287 286 285 284 285 285 285 285 284 284 284 284 283 283 283 282 282 281 281 281 280 280 280 280 280 279 279 278 278 278 278 278 277
282 279 282 285 284 282 281 273 270 274 275 277 284 281 283 281 280 282 282 282 282 282 283 283 284 283 284 288 288 289 289 288 287 285 286 286 286 286 285 285 285 285 285 284 285 285 285 286 287 287 286 286 287 287 286 287 287 287 287 287 287 287 287 287 286 286 285 284 284 284 284 283 284 284 284 284 283 282 282 282 281 281 280 280 280 280 280 279 279 279 278 278 278 278 277 277 277
284 282 286 284 278 277 278 272 273 274 274 274 277 283 283 284 285 288 287 289 287 284 284 283 284 286 285 285 286 285 284 283 285 286 286 287 286 286 285 284 283 284 285 284 284 284 284 284 284 285 286 287 286 286 286 286 286 288 288 287 287 287 287 287 287 286 284 284 284 284 284 284 283 283 283 282 282 282 281 281 281 280 280 280 280 279 279 279 279 278 278 277 277 277 277 276 276
287 287 285 286 282 281 277 281 276 279 277 279 278 282 280 287 286 286 281 282 284 285 285 284 283 284 285 287 287 286 285 284 285 286 286 287 286 285 285 284 284 284 284 284 284 283 284 284 284 284 284 284 284 285 286 286 286 287 287 287 287 287 287 287 286 285 284 284 284 284 283 283 283 283 282 282 282 282 281 281 280 280 279 279 279 279 279 278 278 278 277 277 276 277 276 276 275
285 284 282 284 283 283 282 282 280 280 279 278 278 277 283 288 289 285 286 282 283 283 284 283 285 286 286 286 287 286 286 286 287 286 287 287 287 286 285 284 283 283 283 283 284 285 285 284 285 285 285 285 285 286 285 286 286 286 286 286 287 286 286 286 286 285 285 284 284 284 283 283 282 282 282 282 282 281 281 281 280 280 279 279 279 278 278 278 278 277 276 276 276 276 276 275 275
284 284 283 285 283 281 280 278 285 280 281 277 278 276 284 289 294 293 287 284 287 283 283 285 287 288 288 287 285 285 287 287 285 287 287 289 288 288 287 285 284 284 284 284 285 285 284 285 286 286 285 286 286 286 286 287 287 287 286 286 286 286 286 286 285 285 284 284 283 283 283 282 282 282 282 282 281 281 281 281 280 279 279 279 279 278 278 278 277 276 276 276 276 276 275 274 274
Wind_Speed
5 4 3 1 3 2 1 6 1 2 2 4 3 1 3 1 2 3 3 3 0 2 2 1 1 2 4 4 8 6 2 9 7 10 6 2 3 2 4 3 7 7 8 6 5 5 6 8 9 10 11 13 14 14 13 13 14 13 12 11 11 11 11 11 10 11 11 11 11 10 11 10 11 11 11 11 11 10 9 9 9 10 11 11 12 11 12 12 12 15 15 15 14 14 13 13 13
3 4 3 1 1 1 1 1 3 3 4 3 6 2 4 2 1 5 5 6 3 0 0 2 3 3 5 5 3 2 1 3 5 0 2 4 3 2 3 6 7 11 7 6 5 5 5 7 10 11 14 13 12 15 15 14 13 12 12 12 12 12 12 11 11 11 11 10 10 9 9 10 9 10 11 11 10 10 9 10 11 11 12 12 13 14 15 14 16 15 14 14 15 14 13 13 13
3 5 3 4 3 3 2 3 3 1 1 3 7 7 2 1 5 7 9 6 3 2 1 1 0 0 1 2 1 2 6 1 0 1 0 2 5 8 6 7 7 7 7 4 5 6 5 6 10 13 15 15 13 13 14 13 13 14 13 12 11 10 9 9 10 10 9 9 9 8 8 8 9 10 10 10 9 9 9 10 10 11 12 11 13 13 14 14 14 14 14 14 14 14 14 13 14
0 3 2 3 2 3 1 3 3 4 2 6 5 6 3 2 6 7 6 8 4 0 1 1 1 1 1 2 2 1 3 2 5 5 1 6 8 5 8 9 7 6 5 4 4 5 5 7 11 13 15 14 13 13 13 13 12 13 13 12 12 11 11 11 11 10 10 9 8 8 8 9 9 8 8 8 8 9 9 11 11 11 12 12 12 13 13 13 13 13 13 13 14 13 13 14 14
1 2 2 3 2 1 1 0 1 3 3 5 3 4 4 5 8 4 3 2 2 0 0 1 0 0 1 1 1 1 4 2 2 5 1 2 2 7 9 8 7 7 6 4 5 5 4 8 10 11 14 13 13 13 13 12 12 12 13 13 12 12 13 11 10 10 9 9 10 10 10 11 10 9 8 9 9 10 11 11 11 11 11 12 12 11 11 12 12 12 12 12 12 13 13 13 13
4 2 3 1 0 1 5 1 1 3 8 5 1 5 4 6 5 6 4 4 4 1 4 1 2 1 1 2 3 1 3 2 2 3 4 6 6 11 11 8 7 7 5 4 4 4 5 7 9 10 14 13 13 13 13 13 13 13 13 14 13 13 12 11 11 11 12 11 11 10 11 10 10 10 10 11 11 11 11 11 11 11 11 11 11 10 11 11 11 11 11 11 11 12 12 12 13
0 4 4 4 2 4 4 3 6 5 10 7 5 6 8 7 5 2 3 2 1 1 4 3 1 0 1 2 1 4 1 1 3 3 8 3 8 12 11 9 8 8 6 5 4 4 4 7 11 13 13 13 13 13 14 13 14 13 13 13 14 13 12 12 12 11 11 11 12 12 12 12 12 12 12 11 11 11 12 11 11 11 11 10 10 10 10 10 11 11 11 11 12 12 12 12 13
2 2 1 1 1 2 1 2 5 6 5 8 4 4 8 6 1 3 3 2 2 3 2 2 0 1 6 2 2 2 3 3 3 1 1 6 9 11 11 10 10 8 7 6 5 4 5 8 11 12 13 14 14 13 14 15 14 15 14 13 13 13 13 13 13 13 12 12 12 12 11 12 12 11 11 11 11 11 11 11 11 11 11 11 11 11 11 10 11 11 11 12 12 12 12 12 12
4 4 0 3 2 2 1 4 5 3 7 3 9 7 9 5 4 4 4 3 3 2 1 1 4 2 3 1 4 2 5 2 1 1 4 7 11 12 10 11 12 9 8 7 6 5 5 8 10 13 12 14 15 14 15 16 15 16 15 14 14 14 14 14 13 13 12 12 12 12 12 11 11 11 11 11 11 11 11 11 11 11 11 11 11 11 11 11 11 11 12 13 13 13 12 13 13
1 1 2 2 3 4 2 6 1 5 6 4 5 8 6 1 3 5 3 3 6 1 4 1 2 4 1 4 4 3 2 3 2 2 4 7 9 10 10 10 10 12 9 8 6 6 5 9 11 11 11 12 15 15 16 16 16 16 16 15 15 15 14 14 14 13 13 13 12 12 12 11 11 11 11 11 11 11 11 11 11 11 11 11 11 11 11 11 12 12 13 13 13 13 12 13 13
1 5 2 1 1 2 4 7 5 6 4 3 9 12 13 4 5 3 3 3 1 3 1 3 1 6 0 4 5 1 4 2 4 6 7 8 8 9 9 7 7 10 10 8 7 6 6 6 10 11 11 12 13 15 15 16 16 16 16 16 15 15 15 15 14 13 13 13 13 12 12 11 11 11 11 11 11 11 11 11 11 11 11 11 11 11 11 11 12 12 13 13 13 13 13 13 13
1 0 2 1 3 5 5 3 5 8 8 4 5 5 1 7 3 1 3 3 2 3 3 7 2 5 1 2 4 2 6 3 6 4 8 6 7 5 7 5 6 6 8 8 5 5 5 5 6 9 11 11 12 14 14 15 16 17 17 16 16 16 15 14 14 13 13 13 13 13 13 12 12 11 11 11 10 10 10 10 10 11 10 11 11 11 11 12 12 13 13 13 13 13 13 13 13
2 1 5 2 3 1 1 2 7 3 5 4 4 2 2 7 6 8 4 5 1 0 4 12 2 2 3 3 3 4 1 8 6 4 7 7 6 5 4 5 5 5 6 6 7 6 5 5 5 5 7 10 11 12 12 13 14 16 17 17 16 16 15 15 14 14 13 13 13 13 13 12 12 12 11 11 11 10 10 10 10 11 11 11 11 11 11 12 12 13 13 13 13 13 13 13 13
2 4 4 3 1 0 1 4 3 4 5 5 3 1 2 2 4 3 4 2 6 4 4 4 1 3 3 2 6 4 6 5 4 4 4 5 5 5 5 4 5 5 5 6 8 7 6 5 6 5 6 6 6 8 10 11 12 14 16 16 15 15 15 15 15 15 14 14 14 13 13 13 13 12 12 12 12 11 11 11 11 11 11 11 11 11 12 12 12 12 12 13 13 13 13 13 14
0 2 4 1 1 1 3 1 2 2 5 1 2 1 1 5 1 2 6 5 10 4 0 2 4 3 6 5 7 5 6 6 6 5 5 5 5 5 4 4 5 4 4 5 5 7 7 6 6 6 5 5 6 6 5 8 11 12 12 13 14 15 15 15 15 14 14 14 14 14 12 11 10 12 12 12 12 12 12 11 11 11 11 11 11 11 12 12 12 12 12 13 13 13 13 14 14
4 4 3 1 2 1 5 3 0 0 7 1 3 1 1 6 1 1 5 5 2 1 0 4 1 4 2 5 2 3 3 7 6 7 7 6 4 4 3 4 4 4 4 5 6 6 6 7 6 6 6 6 5 6 6 6 9 11 11 12 12 13 14 14 14 12 12 12 12 11 10 7 8 8 10 8 11 11 9 7 11 12 12 12 12 12 12 12 12 12 12 12 13 13 13 13 13
2 3 1 2 6 3 4 3 2 3 5 3 6 2 1 2 1 3 1 0 2 3 2 2 5 0 4 4 2 3 4 7 8 8 7 5 5 4 3 2 4 4 4 6 6 7 7 8 7 6 6 6 6 6 6 6 7 10 10 12 12 12 12 12 12 11 10 9 9 10 9 6 5 5 6 5 8 5 8 10 11 12 12 12 12 12 12 12 12 12 12 12 12 12 11 11 12
1 1 3 3 5 3 5 5 7 1 1 4 4 0 2 4 3 1 1 2 3 2 3 4 4 5 0 2 2 2 5 11 9 12 9 8 6 6 6 6 6 10 8 7 7 7 8 8 8 7 6 6 6 6 5 5 5 7 6 6 6 8 10 11 8 6 7 5 9 7 5 5 4 4 4 6 4 5 6 10 11 12 12 12 12 12 12 12 12 12 13 13 13 11 11 6 5
3 1 2 8 5 7 7 4 5 1 6 3 4 2 3 8 0 2 2 6 4 6 5 1 6 8 1 3 2 6 8 8 11 11 14 14 12 14 12 9 9 6 8 9 9 10 8 7 6 8 8 7 6 5 5 5 5 5 5 5 5 7 6 6 6 6 6 6 6 6 5 5 4 4 4 5 5 8 7 10 12 12 12 12 12 12 12 12 12 12 12 12 11 10 6 5 6
3 4 5 8 7 5 6 4 5 7 2 6 7 3 4 4 1 0 2 10 6 10 8 1 6 12 11 3 2 5 8 10 11 14 15 16 15 15 12 12 12 13 13 12 11 7 7 9 10 9 8 8 7 6 6 6 5 5 6 5 6 6 6 6 6 6 6 6 6 6 6 5 4 4 5 8 8 5 7 9 11 12 12 11 11 8 10 10 11 11 11 10 7 4 4 4 4
2 2 5 5 4 2 7 8 10 9 1 3 3 1 3 5 5 1 3 8 16 14 8 11 12 13 13 7 6 7 9 10 11 11 13 14 13 11 14 16 17 16 12 7 5 10 11 10 9 9 8 8 7 7 6 7 6 6 6 6 5 6 6 6 6 6 6 6 6 6 6 5 4 4 4 4 5 5 5 5 5 6 5 6 7 6 6 5 5 5 4 4 3 3 4 3 3
4 10 7 6 1 2 11 6 6 3 3 2 2 5 7 0 0 4 5 9 15 9 4 12 13 12 8 8 11 8 11 12 14 14 15 16 18 17 12 9 5 3 4 8 14 11 12 11 10 8 8 8 9 8 8 7 7 7 7 6 6 6 6 7 7 7 7 7 6 6 6 6 5 6 4 4 4 5 6 6 6 6 6 5 4 6 5 4 3 3 4 4 3 2 3 3 3
5 4 6 6 6 7 2 1 4 2 2 2 5 4 3 3 7 4 6 14 19 15 2 8 10 10 8 4 7 9 11 14 15 17 17 15 14 14 14 12 11 11 10 14 10 9 10 10 10 9 10 9 10 7 6 6 7 7 7 7 7 7 6 7 7 7 7 6 6 6 7 7 6 6 5 4 5 4 6 5 5 5 6 6 5 6 5 4 4 4 4 4 3 3 3 3 3
4 8 1 7 8 12 10 8 3 5 4 7 4 4 6 5 11 1 6 17 19 19 2 7 8 5 2 7 12 16 18 18 19 20 19 21 22 21 19 17 15 9 7 10 9 10 11 15 12 11 11 11 9 8 8 8 7 7 7 7 7 7 7 7 7 7 6 7 6 6 6 7 7 6 5 5 5 4 5 5 5 5 6 6 5 6 6 5 5 4 4 3 3 3 3 3 3
6 8 4 6 2 8 9 7 6 5 8 7 3 5 14 7 7 5 17 20 19 14 6 9 7 6 5 7 11 12 13 13 14 15 11 11 11 12 9 8 6 8 12 12 11 11 13 13 13 14 12 13 10 9 9 8 7 7 7 7 8 7 8 8 8 7 7 7 6 7 6 7 6 6 6 5 4 5 4 5 5 5 5 5 5 5 5 6 5 4 4 4 3 4 4 4 3
7 13 2 3 4 6 6 5 5 5 5 3 3 13 14 9 4 10 25 23 20 8 7 8 7 7 7 10 11 12 13 16 16 13 18 15 11 10 13 12 10 13 18 12 11 13 10 11 14 16 15 14 12 10 10 9 9 9 9 9 8 7 8 7 6 7 7 8 7 7 7 7 7 8 7 5 6 6 5 4 4 5 5 4 5 6 4 5 6 4 4 4 4 4 5 3 3
4 4 4 6 8 7 5 6 3 6 5 5 6 11 16 2 5 13 12 12 7 4 6 4 3 8 9 8 9 10 12 16 18 16 7 8 11 13 15 11 13 18 10 14 14 12 10 12 15 15 14 12 10 12 10 11 9 10 10 9 8 8 8 7 7 7 6 7 7 8 7 7 7 6 6 6 5 6 5 5 5 4 4 4 3 5 3 4 4 5 5 4 4 5 4 3 4
0 1 6 7 5 8 10 5 9 1 7 9 9 14 8 4 2 16 21 8 3 5 11 9 5 8 8 9 10 9 11 15 11 6 16 13 15 16 15 14 18 15 13 18 14 10 10 15 15 14 15 13 12 12 11 11 11 11 9 8 9 8 7 7 7 7 7 7 7 7 7 7 7 6 7 6 6 6 6 6 5 5 6 4 3 4 4 3 4 3 4 3 3 4 4 4 3
1 3 7 10 5 10 17 6 7 10 7 5 7 2 9 3 9 21 19 16 4 6 11 15 11 10 9 8 9 8 13 13 8 10 17 18 16 13 17 18 18 16 14 15 11 11 16 15 14 15 14 13 15 15 13 12 10 9 9 10 8 8 8 7 8 8 7 6 6 7 7 7 6 8 7 7 6 6 6 6 5 5 5 5 3 4 4 3 4 4 4 3 4 4 4 4 3
2 1 0 12 8 10 12 4 4 7 3 7 6 6 6 11 19 18 16 8 5 5 11 13 13 10 8 7 9 10 10 9 11 16 16 15 14 14 17 17 16 14 13 9 10 15 15 10 11 10 13 16 17 14 12 11 11 10 9 8 8 8 7 8 8 7 7 7 7 7 8 7 7 7 8 6 6 6 6 5 6 5 5 4 4 4 5 4 5 5 4 5 3 4 4 3 3
3 4 1 5 7 12 2 5 2 1 5 9 3 9 11 13 16 15 9 5 6 9 11 12 12 13 10 7 8 10 12 11 17 17 15 14 14 13 16 14 13 15 8 9 16 21 14 12 11 11 15 16 15 14 15 13 11 10 10 9 8 9 7 8 7 6 6 7 7 7 8 7 7 8 7 8 7 6 6 6 5 6 5 4 5 4 5 4 5 5 5 6 4 4 3 2 2
2 4 7 2 6 9 16 9 6 10 2 3 6 9 13 15 16 15 2 2 5 9 12 13 11 12 12 9 8 10 13 11 12 12 13 16 17 14 14 16 14 12 16 17 17 10 14 14 14 14 14 17 17 17 15 13 12 11 9 9 8 8 7 7 7 7 7 7 7 7 8 8 7 8 8 7 7 6 6 6 6 5 5 5 5 4 4 6 4 5 3 5 6 3 3 2 2
3 5 7 9 1 7 9 12 3 9 1 1 11 11 2 9 13 13 4 6 5 8 11 12 13 13 11 10 11 11 12 12 11 12 13 16 15 14 14 14 14 17 17 14 14 13 13 14 15 16 18 20 18 17 14 11 10 10 10 10 10 8 8 8 7 6 7 7 7 7 8 8 8 8 8 7 7 7 6 6 5 5 4 5 6 5 5 5 5 5 2 1 3 5 4 3 3
7 1 7 4 8 4 6 9 10 3 6 4 7 7 11 14 13 9 9 2 3 6 12 13 12 12 10 9 11 13 13 14 16 13 15 15 12 12 14 13 13 12 11 14 14 16 18 16 16 17 15 15 14 14 13 11 10 9 7 7 7 9 8 7 7 7 8 8 7 8 8 8 8 8 8 8 7 6 6 6 5 5 5 5 5 5 6 4 4 4 5 2 3 4 4 4 3
8 4 5 7 4 8 13 3 5 4 2 6 1 10 16 15 13 13 13 10 6 8 12 14 12 13 14 11 13 16 15 17 22 16 13 10 10 12 12 12 11 11 11 14 14 14 11 11 12 14 14 14 13 12 11 9 8 6 5 6 6 7 6 6 7 7 8 7 8 8 8 8 8 8 8 8 8 7 7 6 6 5 5 6 6 5 5 4 4 3 5 4 3 4 5 3 1
15 11 9 4 8 8 7 12 11 5 18 8 6 14 17 14 14 15 15 13 15 15 14 14 14 15 15 15 17 16 15 19 22 16 9 9 10 9 10 10 11 11 12 12 14 13 13 12 12 12 12 13 11 10 10 9 8 9 10 6 6 7 8 8 8 9 8 9 9 9 9 9 8 9 9 8 8 8 7 7 7 5 6 6 7 7 6 6 7 6 5 6 6 4 3 2 1
4 0 5 11 11 11 10 12 12 2 6 12 16 17 17 16 14 16 16 11 14 17 17 16 14 15 15 16 18 18 16 20 22 14 9 8 8 9 9 9 10 10 10 12 14 14 16 17 15 16 14 14 14 13 13 13 13 10 8 12 13 12 11 10 9 9 9 10 10 10 10 9 9 9 8 9 9 8 7 6 6 5 5 6 6 7 5 6 4 5 6 3 4 3 3 3 1
6 8 6 13 6 16 14 13 11 1 3 7 6 14 18 17 15 14 13 11 15 20 22 19 18 16 15 18 21 20 19 15 15 16 16 6 6 6 6 7 7 9 10 11 15 17 16 13 16 15 12 14 16 16 15 14 15 17 17 16 14 13 12 12 13 11 11 9 9 10 9 9 9 9 9 9 8 9 9 8 7 8 7 6 5 4 4 4 5 5 5 5 2 3 2 2 2
6 9 8 9 10 13 14 14 16 9 1 15 11 17 19 16 13 12 14 19 17 15 19 21 19 17 15 17 20 20 17 18 17 17 16 5 6 6 7 8 10 13 13 15 16 13 12 14 14 12 13 15 15 14 13 15 13 10 11 8 11 8 7 7 6 7 7 9 9 9 9 9 10 9 10 10 9 9 9 8 8 7 7 6 6 6 6 6 5 6 5 7 4 2 3 1 4
6 6 5 13 6 3 13 4 4 1 5 6 4 17 18 13 15 18 18 19 17 15 19 20 18 18 20 22 21 18 18 16 18 19 16 5 7 6 5 6 8 7 8 8 9 14 12 13 13 14 14 14 13 14 14 11 9 6 3 4 4 4 5 5 5 6 6 6 9 9 9 10 11 11 11 10 8 9 9 9 7 7 7 6 6 7 7 6 6 5 4 4 7 4 1 1 3
8 12 11 9 10 16 13 6 5 5 5 4 13 16 17 11 15 11 14 17 16 14 16 16 18 18 21 18 13 16 20 20 19 18 16 9 3 6 9 9 6 9 10 11 12 13 12 16 15 15 14 15 13 13 13 10 9 8 6 7 6 6 6 5 5 6 10 10 8 9 12 10 11 11 10 11 10 10 9 8 8 7 7 7 6 7 8 8 7 6 6 6 5 7 4 2 1
13 7 10 19 18 12 10 10 7 4 6 3 1 10 16 4 13 13 11 4 7 11 12 17 21 21 17 13 17 18 16 16 17 18 17 14 7 5 5 5 8 8 10 10 10 11 10 11 11 12 11 12 13 15 15 13 13 14 12 11 10 8 7 8 12 17 14 14 16 9 7 11 11 11 11 12 11 10 10 9 8 8 8 7 7 7 5 5 5 6 7 6 4 2 6 5 2
11 7 15 18 12 9 8 11 3 6 3 3 1 3 20 3 5 9 7 6 11 8 9 18 19 16 10 14 15 14 14 14 10 11 14 14 10 5 6 8 9 10 12 7 7 10 10 11 13 14 14 12 12 13 15 13 13 13 16 17 16 17 16 14 13 8 10 9 7 11 11 10 12 13 12 12 12 11 10 10 10 10 9 8 6 7 7 8 7 6 4 5 5 5 6 5 7
10 2 8 7 7 7 8 5 6 8 1 4 1 3 6 23 11 10 11 12 12 13 15 17 16 14 13 14 15 14 15 11 12 13 14 13 7 7 10 10 10 14 10 8 9 9 12 14 14 15 12 13 13 14 15 15 15 15 15 14 13 14 15 15 12 10 8 8 10 10 9 10 10 10 11 10 11 11 11 10 10 10 10 9 8 8 9 7 6 4 5 5 5 6 6 9 7
5 1 7 6 8 6 2 5 5 3 4 10 5 3 4 10 8 5 5 8 10 14 18 16 15 15 16 17 16 15 15 13 10 14 16 11 6 8 7 8 11 8 6 10 11 11 10 10 12 12 13 13 13 16 16 16 15 16 16 15 14 13 13 8 7 7 9 9 10 8 9 9 9 9 9 10 10 10 10 11 10 10 10 9 8 7 7 8 9 9 8 7 7 6 5 5 8
4 5 7 5 5 4 3 3 3 2 3 13 8 5 4 17 18 4 3 1 8 11 15 15 14 15 14 12 12 13 10 11 12 14 11 10 6 6 7 6 3 6 6 5 5 6 7 8 11 13 13 12 13 16 16 17 16 14 14 14 16 13 9 6 8 9 9 10 12 11 10 10 10 10 9 9 10 10 10 10 10 11 10 10 9 9 8 8 8 8 8 8 8 7 5 7 8
3 3 2 3 6 3 3 6 2 3 6 11 14 11 8 11 6 8 7 8 9 9 4 7 9 11 14 14 13 13 12 10 12 7 3 5 4 4 2 5 4 2 4 6 7 8 8 10 12 14 14 11 12 15 16 18 15 15 16 16 18 15 13 11 11 11 10 10 13 13 12 11 10 11 9 9 10 10 10 10 10 10 9 10 10 10 10 10 9 9 7 7 7 9 7 7 5
0 1 1 4 5 5 2 4 3 3 10 5 13 15 10 10 3 3 6 6 6 6 7 9 9 11 12 10 10 11 10 10 7 10 9 5 4 2 1 5 4 5 5 6 6 7 9 9 10 12 10 12 11 13 14 16 15 16 15 16 17 16 15 13 16 15 15 15 14 13 10 8 10 9 9 9 10 10 10 9 9 9 10 9 10 9 9 9 9 8 8 8 8 7 7 8 8
3 2 0 2 5 6 3 1 1 5 10 2 0 6 3 19 16 4 7 8 6 10 8 9 9 9 10 11 11 7 7 6 6 6 8 7 4 4 4 4 2 5 7 7 9 8 9 9 11 14 13 12 12 12 15 15 14 15 16 16 15 12 13 14 14 13 12 13 12 11 12 13 10 10 12 12 12 13 11 10 11 11 10 10 9 9 9 10 10 9 9 9 9 10 10 10 9
7 6 5 5 3 4 5 4 1 5 8 2 5 3 9 13 8 10 14 17 14 5 7 10 10 10 13 10 8 9 11 6 5 5 4 4 4 4 5 5 5 4 5 7 8 9 9 10 12 15 15 13 12 13 15 16 18 17 14 13 12 11 12 12 11 12 12 11 11 13 14 14 13 15 13 14 12 12 11 11 11 10 9 9 9 10 10 10 10 10 10 10 11 9 8 9 8
13 4 12 11 9 5 4 4 10 9 8 2 3 3 9 2 4 2 9 6 6 6 5 7 8 8 8 9 9 10 13 7 5 6 6 5 5 5 7 7 6 5 5 5 6 7 8 10 12 14 12 13 13 14 13 16 16 14 12 11 11 10 12 11 12 10 10 11 11 12 12 10 12 12 13 11 10 13 12 11 11 11 9 9 9 9 9 9 9 8 8 9 8 7 8 8 7
3 2 3 1 11 5 8 8 7 10 8 2 3 8 4 8 0 5 6 7 7 7 8 4 7 6 5 7 10 10 9 9 6 7 8 10 7 5 5 6 7 7 7 7 7 8 10 12 12 14 16 16 15 14 15 15 13 10 9 11 13 11 9 9 9 9 10 11 11 12 12 12 11 9 9 10 11 12 12 12 11 11 10 10 9 9 9 9 9 9 8 8 9 6 8 9 7
2 6 6 8 1 5 5 4 4 1 2 14 5 8 9 6 13 7 3 1 8 6 10 7 7 9 6 8 9 9 10 11 9 7 7 8 5 5 6 6 5 4 6 9 10 11 12 11 11 13 11 10 14 16 16 12 11 10 14 13 11 12 14 14 14 12 10 8 8 10 10 11 8 9 10 10 11 11 11 12 11 11 11 10 10 10 10 9 9 9 9 9 9 7 8 8 7
7 2 7 0 1 3 3 6 2 4 10 9 7 17 13 5 14 2 3 5 6 5 5 4 5 6 5 7 7 8 9 9 8 8 9 9 7 7 6 5 6 6 6 5 7 6 5 6 8 12 11 14 14 13 12 12 13 13 12 14 15 16 15 14 12 12 10 9 10 10 9 9 13 10 10 9 11 12 12 12 11 11 10 10 11 10 10 9 9 8 8 8 7 7 7 6 7
3 5 2 2 5 4 2 4 5 6 10 5 7 13 16 12 18 13 11 12 10 6 4 4 4 4 5 6 9 9 7 7 8 7 7 7 5 5 4 4 3 4 6 7 5 5 5 6 5 6 10 11 8 7 8 8 10 11 12 14 15 13 12 13 12 11 10 13 14 13 13 12 8 10 11 11 12 12 12 12 11 11 10 11 10 10 9 9 9 8 8 8 7 8 8 8 7
0 2 2 1 1 4 3 7 2 1 12 9 10 10 12 6 9 10 4 5 5 5 6 6 5 4 5 7 7 9 8 7 8 9 8 9 8 5 1 2 4 5 5 5 6 6 8 7 6 7 6 6 6 8 10 12 14 12 12 11 12 14 14 14 13 12 12 14 14 12 12 10 13 10 10 12 12 13 14 13 12 12 11 11 11 10 10 10 9 8 8 8 8 9 9 9 8
3 2 5 1 2 3 1 2 3 7 10 9 9 11 7 7 6 5 7 3 2 3 5 6 5 8 7 6 7 8 8 7 6 6 8 8 7 5 4 1 3 4 4 5 5 8 7 7 10 11 13 12 11 13 11 14 12 14 15 16 17 15 16 13 11 12 13 13 11 12 12 12 8 12 12 13 13 14 14 14 13 13 13 13 12 12 10 10 10 9 8 8 8 9 10 8 8
4 5 5 8 8 7 9 12 4 4 8 10 9 15 4 5 10 14 7 5 1 4 5 5 8 12 12 9 7 9 9 9 6 7 7 8 7 7 6 3 1 4 6 7 8 6 8 11 14 12 11 12 15 14 16 17 14 13 14 16 15 12 12 10 12 12 13 12 11 12 11 10 13 12 13 14 14 13 13 14 14 13 13 13 13 13 12 11 12 11 10 8 9 10 10 9 9
Wind_Direction
334 352 339 27 65 93 42 4 102 311 43 259 307 288 264 245 239 334 244 340 221 247 198 29 162 156 165 210 190 194 207 137 207 131 212 241 319 195 164 181 142 137 149 156 155 150 151 155 172 170 170 164 155 148 148 147 146 142 141 143 144 144 142 138 137 135 130 127 124 122 116 111 100 90 85 81 81 79 81 84 78 72 67 63 66 68 70 70 73 70 62 62 59 53 49 44 43
317 345 31 9 36 42 244 119 101 349 38 2 253 117 252 285 30 226 223 196 202 202 302 109 82 90 71 53 120 98 249 226 175 189 269 240 326 220 196 175 160 153 153 158 151 144 142 163 177 176 174 173 170 164 161 157 151 150 150 152 151 152 143 139 136 135 132 128 122 113 113 104 100 95 94 90 88 86 87 81 70 69 67 70 73 66 66 66 62 60 58 56 54 48 46 44 42
340 7 21 26 28 74 90 38 283 67 55 283 274 213 330 290 217 252 226 211 227 255 319 178 233 56 51 358 318 154 251 151 256 202 250 324 133 224 197 169 166 153 153 154 152 150 151 166 177 179 177 177 173 168 165 166 164 163 161 162 162 162 155 150 146 143 139 136 134 131 136 119 114 105 99 99 101 92 88 80 73 67 65 71 68 64 61 58 58 56 55 53 53 47 43 40 39
62 39 120 63 244 32 64 24 94 128 213 217 310 272 210 209 254 231 248 248 256 319 350 270 152 226 123 256 228 32 273 303 194 157 179 213 208 169 171 169 160 150 150 157 160 155 158 178 174 182 181 179 176 173 169 165 167 169 167 165 169 163 158 154 150 147 150 152 158 153 147 145 130 124 112 112 117 114 103 86 76 71 70 72 72 66 65 62 61 59 55 53 53 49 44 40 38
52 3 80 94 109 345 104 217 144 110 241 188 207 267 239 226 248 260 271 268 271 173 311 270 24 292 192 215 207 161 243 231 273 189 216 234 204 156 159 164 151 153 161 167 158 158 170 180 182 182 180 179 177 175 170 165 170 175 173 173 171 165 162 158 154 160 154 159 162 161 155 142 142 135 134 130 125 111 97 92 86 79 77 76 76 79 74 71 68 64 60 56 53 51 48 45 42
54 61 3 99 303 161 53 44 293 210 226 154 222 258 238 227 231 226 250 309 274 192 205 248 202 214 294 221 189 208 191 126 167 168 170 230 168 153 155 154 148 154 163 164 164 160 172 188 185 183 180 179 176 174 172 170 174 178 180 171 173 170 165 168 167 170 171 172 164 162 158 151 147 141 138 129 120 110 105 99 95 91 86 85 87 84 81 79 75 74 71 66 61 57 54 51 50
325 46 354 24 21 53 180 182 226 210 264 162 237 255 259 272 226 173 290 344 257 273 171 210 90 189 350 290 326 243 171 111 105 237 171 178 144 149 153 154 148 160 163 167 163 163 177 187 186 181 179 180 176 176 175 173 178 181 180 176 174 171 170 169 170 165 157 155 153 152 147 140 135 133 131 127 119 114 109 104 102 101 97 93 90 88 87 84 83 81 80 76 72 68 64 62 57
63 128 298 113 209 33 207 228 248 155 273 173 232 235 263 261 154 156 224 125 263 193 211 256 188 115 247 58 219 285 328 207 206 335 236 135 146 151 157 155 156 165 166 165 165 170 181 184 185 183 181 180 180 176 177 179 179 178 176 173 171 168 164 165 166 165 160 155 152 146 141 138 135 133 128 123 117 114 112 110 109 106 104 99 96 92 89 89 87 85 83 82 79 76 73 69 64
353 87 317 80 200 45 40 232 250 224 281 280 265 236 273 265 182 157 202 220 335 231 284 236 205 108 260 1 234 286 293 268 314 188 177 153 156 158 159 164 162 165 167 167 169 170 179 179 189 182 183 186 180 177 180 180 179 177 175 173 170 169 167 167 165 160 155 152 148 145 143 139 137 133 129 124 121 117 116 114 112 110 107 105 101 97 94 92 91 88 86 84 81 78 75 71 67
33 66 280 156 121 246 341 281 145 237 218 239 251 266 248 230 195 184 188 256 217 33 252 209 163 223 274 252 301 298 244 337 93 88 187 164 156 156 165 171 165 158 164 169 171 172 174 180 192 184 188 189 182 181 181 182 179 178 176 174 173 171 169 167 162 158 155 153 150 146 144 140 136 133 128 125 123 119 115 113 111 108 106 103 100 98 96 95 92 91 89 85 81 77 74 71 68
282 12 139 106 9 235 220 271 253 301 261 302 290 251 247 199 158 195 196 238 207 202 317 143 359 242 55 267 217 259 318 286 149 194 185 164 154 162 163 165 162 163 164 169 172 173 175 181 193 181 187 190 182 185 184 182 181 179 178 177 175 173 171 167 162 159 157 154 151 148 143 139 135 131 126 122 118 115 112 109 108 106 105 102 101 99 97 94 91 89 85 83 81 77 73 70 66
340 17 355 113 211 178 240 217 274 273 293 323 277 293 207 145 119 195 224 243 254 242 196 150 231 140 214 324 287 293 332 259 215 185 168 152 155 156 153 152 156 168 162 164 166 175 178 180 182 182 184 186 185 186 184 183 182 180 178 176 174 175 171 166 164 162 159 154 151 148 144 140 136 131 126 121 117 113 110 108 106 103 101 101 100 99 98 95 91 87 85 82 79 76 75 71 67
109 103 78 98 240 158 242 288 258 293 310 280 231 331 108 124 180 209 201 222 349 247 282 218 93 126 259 201 252 314 296 236 227 176 164 154 147 137 130 144 156 156 161 161 165 177 178 179 174 177 182 184 188 188 184 182 181 180 178 176 174 171 168 166 165 164 159 154 151 148 144 141 137 133 127 123 117 112 109 106 104 100 98 97 95 93 91 88 86 84 81 79 76 74 72 68 65
116 179 124 246 67 207 187 254 290 314 298 252 271 303 201 148 241 184 119 190 235 181 236 196 115 141 268 2 305 309 243 229 195 164 143 121 114 124 137 140 153 160 167 168 176 175 179 180 175 176 180 184 186 186 182 179 178 177 176 173 171 170 170 168 164 161 158 155 150 147 144 142 140 136 130 124 120 115 111 111 106 102 98 95 92 88 84 82 80 78 74 72 71 69 66 65 61
305 143 82 120 298 32 246 182 232 147 265 262 271 21 232 260 113 95 181 230 261 209 310 145 178 119 247 161 280 245 241 181 153 133 114 93 98 116 130 144 155 164 177 187 183 176 184 179 180 179 182 179 181 178 178 181 176 177 173 170 171 170 169 166 163 159 157 154 149 144 141 138 138 134 130 125 119 116 118 116 113 108 105 100 96 92 86 81 77 74 71 68 65 64 63 60 59
139 80 78 244 274 149 274 209 263 123 266 216 264 295 165 279 200 183 247 190 254 298 119 218 244 202 222 164 222 277 269 140 137 118 111 101 88 90 121 143 165 187 194 199 194 197 182 180 182 184 181 180 177 175 177 176 177 176 173 171 171 170 168 165 162 158 156 150 142 130 118 109 108 116 119 118 122 118 108 107 114 113 112 109 104 100 94 89 84 81 78 73 69 64 60 57 56
79 80 296 37 284 157 257 181 160 258 247 278 286 347 243 281 287 246 125 120 254 256 216 223 194 54 201 206 276 295 115 115 116 118 117 122 126 125 127 159 188 211 215 215 203 198 192 185 186 182 186 180 176 174 175 173 177 173 172 170 169 169 166 163 160 149 140 131 119 118 112 106 110 108 105 106 104 108 110 108 112 113 111 109 106 104 101 97 92 87 83 80 75 68 59 53 50
58 168 124 267 206 166 212 197 191 220 255 285 338 249 199 295 315 273 11 288 224 262 245 291 295 266 175 267 339 135 139 136 147 145 162 161 162 169 190 203 187 206 201 209 218 204 193 198 187 183 182 188 176 176 175 173 174 167 166 169 166 167 163 157 142 134 127 124 127 120 118 124 124 123 124 119 116 112 110 113 114 113 112 108 107 105 102 96 88 83 79 75 70 62 57 52 40
132 133 123 238 189 239 163 203 222 152 261 231 276 301 188 247 121 307 341 281 278 277 256 295 276 281 276 26 87 134 147 153 161 171 168 175 185 189 196 192 204 200 210 212 212 205 201 190 187 189 189 181 179 178 175 174 170 157 165 166 165 158 156 139 140 136 132 134 134 134 134 135 138 136 133 135 132 125 118 114 114 109 102 98 99 95 90 86 83 80 77 74 67 57 46 42 41
225 131 241 244 213 240 220 212 241 202 255 305 303 303 159 250 166 301 235 277 282 257 248 285 243 253 245 192 158 163 169 173 181 178 186 190 192 193 192 195 203 210 209 203 202 196 196 196 195 191 185 182 178 182 175 176 168 160 164 168 166 158 150 146 145 143 142 144 147 145 141 143 140 144 148 135 122 113 110 103 104 101 96 88 83 71 73 77 78 79 81 75 68 68 62 52 50
251 121 213 230 216 209 260 204 238 255 209 254 250 334 313 272 222 141 238 326 281 257 216 208 226 233 245 189 182 178 181 184 195 200 196 198 204 206 201 197 196 202 203 185 186 201 201 199 191 195 186 182 181 181 178 181 171 160 170 173 168 165 156 153 155 152 153 149 149 145 143 139 141 141 130 123 124 127 119 113 103 101 99 94 95 94 88 83 78 76 69 73 73 87 83 68 73
116 210 222 208 124 218 254 223 221 227 177 215 282 317 266 336 223 219 207 236 267 272 208 205 224 230 226 176 201 183 188 190 198 201 204 202 200 206 211 223 239 223 170 187 206 199 200 199 194 189 185 187 189 184 185 176 161 175 178 179 171 178 169 164 161 161 159 158 154 148 137 131 139 141 143 143 145 138 126 123 116 114 108 113 111 112 108 112 108 119 122 116 116 116 105 102 79
238 263 256 231 216 235 267 186 193 161 272 251 300 251 321 273 282 214 194 222 254 259 172 198 222 226 227 168 152 190 193 199 201 205 204 209 215 216 211 209 200 201 197 212 199 202 195 198 196 185 191 188 194 185 177 176 185 182 176 176 172 185 179 169 171 168 169 164 161 155 143 148 149 153 152 156 153 143 134 135 133 130 129 130 136 128 130 135 137 134 132 126 137 119 103 94 85
227 255 235 265 210 231 253 266 271 281 262 258 220 346 291 283 297 171 213 245 247 270 236 232 230 235 152 155 182 191 196 198 206 208 202 205 204 207 205 203 206 206 206 215 202 199 195 200 193 187 193 188 191 185 182 186 183 180 183 180 186 182 174 182 175 172 161 169 167 159 145 152 156 158 165 160 166 147 150 148 139 132 132 138 141 135 133 136 136 137 132 125 120 108 95 79 73
209 264 212 267 240 243 259 260 272 260 258 259 332 290 262 220 246 347 269 264 265 264 263 252 242 229 197 200 198 205 207 215 219 218 221 228 224 224 224 227 210 199 216 210 204 199 203 196 190 195 191 192 188 181 190 187 182 183 184 186 190 184 185 184 177 166 169 170 170 161 153 155 157 160 168 169 156 163 156 150 146 143 137 144 139 141 140 141 134 136 122 112 103 89 76 62 60
210 234 205 268 254 274 259 286 241 233 264 186 279 263 269 259 263 262 257 267 270 294 265 251 239 238 221 217 210 203 210 213 218 216 217 216 218 217 222 211 204 209 215 203 202 209 198 189 195 198 194 190 185 180 193 184 186 187 191 192 190 185 191 181 170 176 172 166 171 170 165 162 168 169 168 167 166 169 164 153 145 153 150 154 146 148 163 139 136 122 109 99 92 82 70 55 65
168 231 239 256 267 294 272 217 249 209 225 163 202 265 269 1 143 277 259 238 284 315 294 310 248 241 236 226 221 216 212 219 214 217 226 225 222 219 223 207 209 220 196 211 208 205 193 188 201 198 195 189 181 190 190 192 184 193 191 189 187 191 182 173 179 176 169 175 172 167 166 169 163 163 166 170 172 167 164 159 161 156 155 168 159 147 150 139 129 118 119 113 102 90 77 56 64
285 244 300 283 299 268 260 231 254 156 278 187 206 249 278 314 156 245 268 259 93 328 291 285 258 251 244 235 228 221 220 230 222 189 217 211 218 216 217 205 216 214 197 213 207 188 188 200 198 195 193 186 185 193 191 192 193 193 188 186 191 187 175 181 180 176 177 176 170 169 168 171 165 165 166 174 175 169 168 166 163 161 173 168 157 145 138 125 115 107 97 90 88 84 71 49 39
280 8 321 295 333 326 279 261 247 161 250 158 170 251 289 249 230 245 247 267 273 278 281 283 273 252 251 242 239 231 226 229 206 211 223 220 220 212 219 212 213 206 215 213 192 183 200 196 193 196 188 187 190 193 193 194 190 189 186 192 187 181 181 178 182 184 177 173 170 172 171 171 171 167 172 175 176 173 167 163 166 176 173 165 155 146 129 119 107 102 88 89 74 67 64 38 29
322 44 80 315 321 305 298 108 16 151 256 142 141 272 232 252 248 253 261 263 285 288 269 270 276 273 253 241 237 241 242 234 219 221 226 225 225 215 220 221 213 208 211 195 179 200 201 191 192 185 188 192 195 193 189 190 192 189 188 188 184 179 183 182 189 183 173 168 171 175 173 175 171 168 165 174 171 170 171 172 171 176 174 164 147 140 137 140 125 117 121 98 82 76 76 46 38
267 263 75 246 347 270 300 65 86 272 206 175 149 247 266 262 265 261 264 261 252 258 264 264 268 273 272 250 243 246 249 223 230 228 230 232 231 224 221 225 207 210 195 189 197 207 186 189 182 189 191 194 191 193 192 193 188 187 185 185 185 183 182 186 185 176 172 172 169 176 177 176 174 171 171 167 173 172 172 174 179 181 166 156 147 155 139 133 129 131 134 108 94 82 83 74 68
310 6 263 337 209 276 301 303 200 246 297 192 130 255 246 259 267 276 258 243 204 238 256 263 264 264 267 274 260 254 252 246 242 241 230 232 231 226 219 224 208 199 201 203 206 187 189 191 188 190 188 192 193 194 193 190 187 186 184 183 180 180 180 187 182 181 176 167 174 176 180 178 175 174 170 166 168 177 177 179 183 169 167 152 149 146 138 142 139 128 136 133 114 108 107 57 37
347 203 275 271 234 264 342 288 179 235 184 268 177 240 283 289 258 270 281 235 207 237 258 264 266 267 269 268 272 268 272 264 248 242 233 230 232 223 223 223 207 206 204 200 196 191 195 190 189 190 189 193 193 192 189 187 181 184 183 182 180 177 183 186 181 171 170 175 178 178 180 180 177 174 170 169 167 175 176 179 180 173 165 156 153 156 149 152 144 131 116 132 123 126 96 83 31
269 138 225 203 249 287 267 304 283 212 181 217 232 243 239 255 271 281 297 223 233 237 258 263 265 269 266 268 268 268 268 273 265 246 241 230 234 218 223 220 214 208 204 200 197 192 196 190 191 194 194 191 189 187 185 182 180 176 177 175 175 180 185 183 177 170 181 182 176 183 178 178 175 173 171 170 170 174 172 174 174 172 165 157 153 154 159 147 137 134 121 79 101 104 90 73 30
242 221 252 276 261 235 254 305 261 17 198 211 298 252 260 262 276 285 276 290 261 254 256 260 265 269 270 266 264 266 266 269 268 258 246 242 226 219 216 215 210 202 200 198 195 197 190 188 191 194 188 185 184 179 174 168 158 157 149 157 170 181 181 182 173 182 185 180 185 176 174 179 175 173 171 169 167 171 170 174 174 178 167 161 154 151 151 147 137 128 127 107 78 90 111 108 100
239 230 248 240 257 244 226 242 269 262 277 278 220 250 258 261 266 270 273 270 273 264 261 263 263 264 268 265 266 265 264 266 266 266 254 238 223 212 210 206 207 202 199 191 193 190 191 187 189 189 187 180 171 164 161 162 161 168 169 160 174 192 187 181 187 191 180 187 184 175 178 178 174 173 171 170 168 170 173 177 176 176 175 162 161 160 167 164 157 134 133 126 115 89 65 89 48
272 177 219 251 255 271 263 266 268 234 318 254 266 263 263 264 259 264 270 274 278 274 265 263 260 262 264 265 263 263 262 259 267 274 257 242 228 212 206 199 203 200 196 188 191 193 192 190 180 188 184 173 171 171 175 171 173 172 178 189 193 189 188 185 188 189 187 191 180 180 178 179 173 170 171 167 173 172 174 173 171 180 178 172 173 178 164 156 154 147 134 118 120 96 44 15 40
247 262 267 263 233 268 252 268 265 287 200 275 247 276 272 267 265 263 270 270 257 266 272 269 264 258 260 262 266 264 260 269 273 278 269 234 236 215 204 199 186 189 207 191 193 196 194 182 186 187 172 179 182 181 179 179 183 183 181 189 189 187 182 183 191 190 192 184 180 180 179 176 173 174 171 174 171 173 173 178 181 181 178 178 170 152 155 156 146 140 143 80 30 123 92 348 329
247 236 255 280 256 259 272 260 268 261 215 276 274 265 266 266 262 262 254 255 251 246 257 262 268 267 262 261 262 265 266 267 272 268 272 245 221 213 198 205 203 203 196 194 198 188 185 187 190 178 182 180 186 181 175 186 187 188 188 186 185 179 192 188 179 179 169 179 185 182 177 175 174 176 174 176 174 178 178 175 185 176 179 168 157 165 165 160 161 158 164 135 105 49 96 13 1
221 240 255 246 261 272 285 190 283 341 190 291 284 284 278 273 262 252 247 250 251 243 249 257 256 258 257 254 254 266 272 268 269 271 279 253 205 208 212 216 212 207 202 199 191 191 188 188 184 181 183 183 180 183 184 182 173 156 124 107 125 120 161 150 136 141 168 167 190 183 183 180 178 179 178 177 175 177 176 181 172 175 178 177 170 164 168 170 164 165 152 144 133 112 72 14 358
209 218 234 265 250 239 234 270 343 301 275 244 293 287 278 230 252 248 255 238 250 252 254 259 259 254 252 258 274 263 263 268 270 278 275 268 213 224 212 213 201 208 207 200 192 191 190 190 186 181 177 180 181 178 175 159 138 124 109 89 93 86 75 123 139 176 189 191 178 189 193 180 182 180 177 179 176 179 179 175 173 174 171 180 174 173 177 179 178 171 165 155 158 142 151 132 338
253 214 203 234 245 266 266 284 343 354 325 307 300 333 297 201 205 223 237 265 243 245 246 253 255 253 261 269 257 260 257 256 262 269 272 276 247 229 224 217 210 217 218 211 197 194 183 183 177 175 175 177 179 177 170 162 167 161 154 153 159 171 175 174 191 198 188 190 199 177 171 186 182 182 181 180 182 175 177 174 169 167 176 179 182 179 167 153 171 171 185 167 153 158 136 129 107
264 260 203 231 242 244 265 278 0 283 241 322 30 185 292 171 190 223 240 242 247 257 233 244 251 258 260 258 260 259 260 268 261 258 266 267 256 219 225 214 212 215 223 193 185 186 182 176 177 177 177 178 175 173 170 167 168 175 178 180 179 181 189 205 203 184 186 190 166 181 187 186 189 184 186 183 181 178 173 172 173 176 176 177 172 161 175 183 176 172 159 156 167 145 130 126 153
262 225 185 208 223 228 239 227 197 252 258 273 182 152 238 297 273 199 211 231 237 247 250 249 254 261 257 256 261 263 260 253 260 263 260 256 255 218 231 215 208 217 207 179 187 182 181 178 174 177 176 177 177 173 175 177 176 179 183 187 188 194 198 202 185 186 170 170 184 184 181 190 190 193 185 187 182 179 175 174 174 173 174 178 173 179 180 174 157 156 160 163 152 160 152 143 160
227 249 153 187 201 205 148 174 193 224 15 296 163 94 290 255 273 160 172 222 253 248 248 252 256 258 255 253 253 257 260 263 255 259 262 264 237 230 228 221 222 214 179 188 187 185 179 175 174 173 177 176 176 176 178 183 183 182 185 187 194 204 200 183 162 156 165 169 179 177 183 185 189 194 192 186 186 183 180 178 174 174 176 177 178 174 174 170 172 164 163 161 168 169 156 151 148
263 113 74 75 77 74 135 130 158 320 27 272 169 166 220 275 288 143 360 211 255 250 248 248 247 249 259 273 271 263 269 269 264 250 262 276 254 235 226 241 220 207 194 178 169 157 166 167 174 176 181 180 178 180 182 184 185 183 188 195 197 196 182 157 159 169 169 170 183 184 184 182 187 189 192 190 187 187 182 178 178 180 179 174 176 178 169 171 172 172 173 168 163 162 160 155 167
116 98 65 6 37 28 24 68 88 31 267 261 165 191 166 278 292 170 129 203 216 233 291 279 275 275 263 257 259 270 270 268 265 279 269 286 301 267 243 221 217 174 169 166 167 169 166 172 176 181 186 180 181 184 182 187 188 188 194 194 196 191 184 173 170 179 174 176 189 187 186 188 184 190 184 192 190 184 185 181 181 182 178 178 176 172 178 176 176 171 167 161 165 162 164 158 149
166 276 120 18 315 12 35 344 43 182 267 246 178 181 178 218 291 312 253 290 274 220 226 251 252 259 264 268 269 264 268 274 313 334 330 312 309 296 263 219 185 181 164 175 172 167 170 174 175 181 184 187 184 186 188 191 192 196 199 197 198 196 184 185 189 188 185 187 187 185 182 175 190 187 188 189 191 186 183 184 181 179 183 180 183 179 174 173 168 162 164 170 171 167 159 157 159
134 104 46 220 274 29 313 24 279 184 227 249 109 143 2 240 248 290 290 269 279 241 220 233 241 264 279 271 268 295 303 303 329 313 303 305 284 286 280 270 218 187 190 180 178 174 171 172 178 181 192 189 188 187 193 195 197 202 201 201 203 194 192 194 196 193 188 189 186 182 178 191 180 186 196 193 194 183 182 181 183 185 186 189 180 176 176 169 166 168 170 173 172 172 175 169 169
133 164 166 120 262 250 249 268 249 304 284 249 167 199 240 275 298 206 237 243 239 249 243 245 248 250 262 283 311 304 298 304 296 287 285 281 291 280 265 249 234 234 209 190 180 177 178 179 181 188 192 188 188 192 196 197 204 204 201 201 199 193 200 198 199 198 192 193 186 190 189 189 188 197 188 198 185 180 187 189 185 189 187 181 180 180 176 175 171 171 172 174 180 179 167 173 173
200 131 158 190 175 163 239 205 247 236 239 352 279 133 233 338 233 241 228 278 305 265 246 248 270 286 294 286 281 285 283 307 337 323 299 287 257 227 230 226 223 213 205 203 196 188 178 187 188 191 188 195 193 198 197 205 208 205 203 202 198 198 201 198 203 201 192 191 193 194 195 191 196 196 193 188 173 187 189 183 185 184 183 180 178 179 178 176 176 169 175 177 174 168 171 165 167
225 163 55 59 231 125 229 216 231 268 282 327 207 216 195 236 141 270 231 263 280 270 270 322 297 286 298 312 289 281 297 317 310 300 292 270 257 257 243 230 220 205 192 191 200 196 193 196 193 196 195 190 193 195 205 207 206 201 205 204 206 202 203 202 205 203 201 195 192 192 195 195 198 185 186 175 185 182 186 185 182 186 178 179 181 181 179 178 176 173 173 174 175 170 166 169 164
241 101 206 220 52 150 271 312 293 50 27 251 232 289 276 303 284 276 317 337 280 295 287 290 293 289 305 285 293 302 297 290 286 275 269 281 288 261 236 234 237 229 208 201 198 201 202 191 192 201 203 199 200 202 202 199 201 202 208 207 202 202 203 203 205 203 198 188 187 196 195 197 184 185 184 179 177 183 185 184 183 182 180 179 179 182 180 179 177 177 177 173 175 170 165 166 154
106 192 241 27 142 113 168 227 332 223 233 250 232 264 276 341 281 341 359 359 299 304 271 275 281 292 294 273 275 274 276 279 283 282 276 268 264 254 240 229 213 206 215 225 223 214 220 223 212 201 197 202 208 204 202 199 200 206 209 210 209 207 206 208 203 198 190 181 192 195 192 185 196 184 173 178 176 180 184 183 183 182 181 179 183 178 179 177 174 181 179 180 170 157 154 151 164
181 189 272 131 256 272 268 87 243 236 238 267 218 253 268 261 269 282 285 285 289 285 286 321 314 336 313 308 297 287 287 300 294 287 288 288 287 303 291 279 283 255 219 203 205 208 221 224 235 228 219 221 219 212 208 209 207 212 211 211 209 213 214 212 207 195 184 192 196 196 194 196 173 176 177 173 177 179 182 185 183 182 179 182 178 180 175 175 177 175 176 172 163 163 162 167 169
136 9 319 123 116 221 160 197 206 189 260 255 243 209 248 239 253 261 243 237 245 278 308 308 274 278 290 295 296 293 305 294 296 308 318 313 290 264 259 270 262 248 260 244 196 184 207 210 213 224 232 225 215 214 211 214 212 211 216 213 215 212 211 211 208 198 197 201 201 194 192 185 191 174 179 176 178 182 182 182 184 181 180 180 179 178 176 175 176 181 174 172 171 166 166 169 167
225 205 257 273 223 221 125 289 179 219 255 242 271 253 241 246 264 248 252 209 242 243 252 260 276 287 284 272 271 282 280 292 302 301 297 297 318 346 16 17 250 259 226 231 235 211 205 203 214 209 210 206 209 212 206 220 212 217 214 211 213 209 212 208 206 207 208 207 200 195 194 192 161 184 178 180 182 184 181 182 181 183 182 182 179 177 178 174 179 178 178 173 168 171 167 168 161
176 191 227 227 235 271 260 257 174 214 227 246 245 256 233 286 303 286 260 197 242 237 207 259 302 305 288 265 248 237 274 290 267 270 275 305 310 326 354 349 291 248 247 228 217 209 211 212 216 213 211 213 211 210 208 216 211 219 216 221 219 216 214 203 206 206 210 209 205 200 191 173 187 186 179 183 183 181 182 180 181 184 184 184 183 180 176 176 179 176 176 174 175 173 170 168 166